Zurück zum Katalog

STARLINK-1548

AktivKommunikationVLEO
NORAD 46054·PAYLOAD·🇺🇸 United States

Gestartet Aug 7, 2020 von Cape Canaveral Space Force Station

Loading…

Nächste Überflüge (nächste 24 Stunden)

TLE

AktuellSource: CelesTrak SupGP

Epoche: Sep 14, 2026, 21:20 UTC

1 46054C 20055AD  26257.88937500 -.00012123  00000+0 -38984-3 0  2575
2 46054  53.1588 313.6004 0001106  89.5635 230.5198 15.31707953    12

Verfolge STARLINK-1548 in Echtzeit mit AllMySat

Download on the App Store